�������l�o���
Date,Time,MP-1(��Sv/h),MP-2(��Sv/h),MP-3(��Sv/h),MP-4(��Sv/h),MP-5(��Sv/h),MP-6(��Sv/h),MP-7(��Sv/h),MP-8(��Sv/h),����,����(m/s),���J
2023/11/16,00:00,0.511,0.771,0.483,0.973,0.700,0.311,0.561,0.524,�k��,4.4,��
2023/11/16,00:10,0.511,0.771,0.482,0.975,0.700,0.311,0.561,0.523,�k��,5.0,��
2023/11/16,00:20,0.510,0.771,0.483,0.975,0.698,0.312,0.561,0.525,�k��,5.0,��
2023/11/16,00:30,0.511,0.772,0.481,0.973,0.701,0.312,0.562,0.525,�k��,5.0,��
2023/11/16,00:40,0.510,0.771,0.481,0.974,0.699,0.311,0.563,0.524,�k��,5.3,��
2023/11/16,00:50,0.512,0.772,0.481,0.973,0.699,0.312,0.563,0.525,�k�k��,5.3,��
2023/11/16,01:00,0.512,0.773,0.481,0.975,0.699,0.311,0.561,0.524,�k��,4.4,��
2023/11/16,01:10,0.512,0.772,0.482,0.973,0.701,0.311,0.561,0.524,�k��,4.7,��
2023/11/16,01:20,0.511,0.772,0.482,0.976,0.699,0.313,0.561,0.525,�k�k��,5.4,��
2023/11/16,01:30,0.509,0.773,0.482,0.974,0.700,0.312,0.563,0.525,�k��,5.1,��
2023/11/16,01:40,0.513,0.773,0.482,0.974,0.700,0.312,0.562,0.525,�k�k��,4.6,��
2023/11/16,01:50,0.512,0.772,0.482,0.975,0.700,0.312,0.561,0.524,�k�k��,5.1,��
2023/11/16,02:00,0.511,0.771,0.482,0.977,0.699,0.311,0.563,0.524,�k�k��,5.1,��
2023/11/16,02:10,0.512,0.771,0.481,0.973,0.699,0.310,0.561,0.525,�k�k��,4.9,��
2023/11/16,02:20,0.510,0.771,0.483,0.976,0.701,0.311,0.562,0.525,�k�k��,6.1,��
2023/11/16,02:30,0.512,0.771,0.483,0.974,0.700,0.312,0.562,0.525,�k�k��,5.6,��
2023/11/16,02:40,0.510,0.772,0.484,0.974,0.701,0.311,0.561,0.524,�k�k��,6.3,��
2023/11/16,02:50,0.510,0.771,0.481,0.974,0.701,0.311,0.563,0.524,�k�k��,5.8,��
2023/11/16,03:00,0.512,0.770,0.483,0.975,0.701,0.312,0.561,0.524,�k�k��,5.5,��
2023/11/16,03:10,0.513,0.772,0.482,0.974,0.699,0.311,0.560,0.525,�k�k��,5.6,��
2023/11/16,03:20,0.511,0.774,0.482,0.974,0.698,0.312,0.561,0.524,�k�k��,5.5,��
2023/11/16,03:30,0.512,0.772,0.482,0.973,0.700,0.313,0.560,0.525,�k�k��,6.1,��
2023/11/16,03:40,0.511,0.771,0.483,0.975,0.701,0.313,0.561,0.524,�k�k��,6.2,��
2023/11/16,03:50,0.511,0.770,0.482,0.976,0.700,0.311,0.562,0.523,�k�k��,6.8,��
2023/11/16,04:00,0.511,0.772,0.481,0.976,0.698,0.312,0.561,0.525,�k�k��,7.0,��
2023/11/16,04:10,0.511,0.772,0.481,0.974,0.699,0.311,0.563,0.524,�k��,6.2,��
2023/11/16,04:20,0.512,0.772,0.480,0.976,0.700,0.311,0.560,0.524,�k�k��,5.8,��
2023/11/16,04:30,0.511,0.772,0.481,0.973,0.699,0.311,0.561,0.524,�k�k��,6.5,��
2023/11/16,04:40,0.510,0.771,0.482,0.977,0.699,0.311,0.561,0.524,�k��,6.5,��
2023/11/16,04:50,0.509,0.771,0.482,0.974,0.700,0.310,0.560,0.524,�k�k��,5.9,��
2023/11/16,05:00,0.512,0.772,0.482,0.974,0.699,0.313,0.561,0.524,�k��,5.5,��
2023/11/16,05:10,0.511,0.772,0.481,0.976,0.701,0.310,0.561,0.525,�k��,5.9,��
2023/11/16,05:20,0.511,0.770,0.480,0.975,0.700,0.311,0.561,0.524,�k��,5.6,��
2023/11/16,05:30,0.510,0.771,0.482,0.975,0.698,0.314,0.561,0.525,�k��,5.7,��
2023/11/16,05:40,0.511,0.771,0.482,0.976,0.700,0.311,0.562,0.524,�k�k��,5.7,��
2023/11/16,05:50,0.510,0.771,0.481,0.976,0.699,0.310,0.564,0.523,�k�k��,5.2,��
2023/11/16,06:00,0.510,0.770,0.480,0.975,0.698,0.311,0.562,0.524,�k��,5.5,��
2023/11/16,06:10,0.510,0.771,0.482,0.974,0.699,0.311,0.561,0.524,�k�k��,6.0,��
2023/11/16,06:20,0.513,0.770,0.481,0.976,0.699,0.312,0.562,0.524,�k�k��,5.4,��
2023/11/16,06:30,0.511,0.771,0.482,0.974,0.701,0.311,0.562,0.525,�k�k��,5.6,��
2023/11/16,06:40,0.511,0.770,0.483,0.976,0.699,0.311,0.562,0.524,�k�k��,5.6,��
2023/11/16,06:50,0.511,0.770,0.481,0.976,0.700,0.313,0.562,0.525,�k�k��,5.2,��
2023/11/16,07:00,0.511,0.773,0.480,0.976,0.701,0.312,0.562,0.524,�k�k��,5.6,��
2023/11/16,07:10,0.510,0.772,0.481,0.977,0.698,0.311,0.561,0.525,�k��,5.3,��
2023/11/16,07:20,0.511,0.771,0.481,0.975,0.700,0.311,0.562,0.524,�k�k��,5.8,��
2023/11/16,07:30,0.510,0.773,0.482,0.976,0.698,0.312,0.563,0.525,�k�k��,5.8,��
2023/11/16,07:40,0.512,0.774,0.481,0.976,0.698,0.311,0.563,0.524,�k�k��,4.9,��
2023/11/16,07:50,0.511,0.771,0.482,0.975,0.699,0.312,0.562,0.522,�k�k��,5.0,��
2023/11/16,08:00,0.509,0.771,0.482,0.975,0.698,0.312,0.563,0.525,�k�k��,4.6,��
2023/11/16,08:10,0.507,0.772,0.482,0.975,0.699,0.311,0.562,0.526,�k�k��,4.7,��
2023/11/16,08:20,0.508,0.772,0.483,0.976,0.699,0.311,0.563,0.525,�k�k��,4.3,��
2023/11/16,08:30,0.508,0.772,0.481,0.975,0.700,0.311,0.564,0.524,�k�k��,4.6,��
2023/11/16,08:40,0.505,0.772,0.483,0.974,0.698,0.312,0.563,0.525,�k�k��,5.7,��
2023/11/16,08:50,0.507,0.770,0.482,0.976,0.697,0.312,0.562,0.525,�k,4.1,��
2023/11/16,09:00,0.506,0.771,0.483,0.977,0.699,0.312,0.561,0.525,�k,4.3,��
2023/11/16,09:10,0.508,0.772,0.482,0.974,0.700,0.312,0.561,0.526,�k,4.4,��
2023/11/16,09:20,0.510,0.769,0.483,0.977,0.701,0.312,0.560,0.525,�k,4.7,��
2023/11/16,09:30,0.509,0.765,0.483,0.977,0.700,0.312,0.561,0.525,�k,5.5,��
2023/11/16,09:40,0.509,0.768,0.482,0.974,0.702,0.313,0.561,0.526,�k,4.3,��
2023/11/16,09:50,0.508,0.767,0.484,0.978,0.700,0.312,0.563,0.526,�k,5.9,��
2023/11/16,10:00,0.509,0.767,0.484,0.979,0.700,0.312,0.561,0.525,�k,5.1,��
2023/11/16,10:10,0.508,0.774,0.483,0.975,0.700,0.313,0.562,0.526,�k,4.4,��
2023/11/16,10:20,0.508,0.774,0.484,0.975,0.702,0.312,0.561,0.525,�k,4.6,��
2023/11/16,10:30,0.508,0.772,0.483,0.975,0.702,0.312,0.560,0.526,�k,4.8,��
2023/11/16,10:40,0.509,0.772,0.482,0.975,0.696,0.312,0.561,0.525,�k,4.3,��
2023/11/16,10:50,0.509,0.773,0.483,0.977,0.702,0.311,0.562,0.524,�k,3.9,��
2023/11/16,11:00,0.508,0.772,0.484,0.976,0.700,0.311,0.562,0.526,�k,4.2,��
2023/11/16,11:10,0.507,0.773,0.484,0.975,0.699,0.310,0.562,0.526,�k,3.2,��
2023/11/16,11:20,0.507,0.774,0.485,0.974,0.700,0.311,0.562,0.527,�k�k��,3.5,��
2023/11/16,11:30,0.507,0.774,0.483,0.975,0.701,0.310,0.562,0.527,�k��,4.0,��
2023/11/16,11:40,0.508,0.774,0.482,0.977,0.699,0.311,0.563,0.526,�k�k��,3.1,��
2023/11/16,11:50,0.511,0.776,0.483,0.976,0.700,0.312,0.564,0.526,�k,2.9,��
2023/11/16,12:00,0.513,0.776,0.484,0.976,0.703,0.312,0.562,0.527,�k��,2.6,��
2023/11/16,12:10,0.513,0.775,0.484,0.974,0.701,0.312,0.563,0.526,�k�k��,3.1,��
2023/11/16,12:20,0.513,0.776,0.485,0.980,0.702,0.313,0.562,0.525,�k�k��,3.6,��
2023/11/16,12:30,0.513,0.775,0.483,0.978,0.702,0.313,0.563,0.524,�k�k��,4.1,��
2023/11/16,12:40,0.514,0.776,0.484,0.975,0.702,0.313,0.563,0.523,�k�k��,5.4,��
2023/11/16,12:50,0.512,0.777,0.484,0.978,0.703,0.313,0.561,0.523,�k�k��,5.3,��
2023/11/16,13:00,0.513,0.778,0.485,0.978,0.702,0.314,0.562,0.524,�k�k��,5.9,��
2023/11/16,13:10,0.513,0.776,0.484,0.976,0.703,0.313,0.560,0.523,�k�k��,5.6,��
2023/11/16,13:20,0.513,0.775,0.482,0.977,0.700,0.311,0.562,0.524,�k�k��,5.4,��
2023/11/16,13:30,0.512,0.776,0.483,0.976,0.702,0.313,0.562,0.523,�k�k��,5.3,��
2023/11/16,13:40,0.514,0.776,0.483,0.980,0.702,0.314,0.563,0.525,�k,4.0,��
2023/11/16,13:50,0.513,0.776,0.484,0.977,0.702,0.314,0.561,0.523,�k,4.0,��
2023/11/16,14:00,0.513,0.776,0.483,0.979,0.701,0.312,0.562,0.523,�k,4.6,��
2023/11/16,14:10,0.514,0.775,0.482,0.978,0.702,0.312,0.562,0.524,�k,4.3,��
2023/11/16,14:20,0.514,0.774,0.484,0.980,0.702,0.313,0.563,0.524,�k,4.3,��
2023/11/16,14:30,0.514,0.775,0.484,0.977,0.702,0.312,0.564,0.524,�k,4.4,��
2023/11/16,14:40,0.513,0.776,0.485,0.979,0.700,0.314,0.563,0.523,�k,4.3,��
2023/11/16,14:50,0.513,0.777,0.483,0.979,0.700,0.313,0.565,0.523,�k,3.4,��
2023/11/16,15:00,0.515,0.777,0.484,0.980,0.702,0.311,0.563,0.524,�k�k��,3.5,��
2023/11/16,15:10,0.512,0.779,0.483,0.979,0.703,0.312,0.565,0.524,�k,3.6,��
2023/11/16,15:20,0.513,0.779,0.484,0.979,0.702,0.313,0.565,0.524,�k�k��,3.6,��
2023/11/16,15:30,0.512,0.781,0.485,0.979,0.703,0.311,0.564,0.526,�k�k��,3.0,��
2023/11/16,15:40,0.513,0.779,0.487,0.979,0.703,0.313,0.565,0.527,�k�k��,3.5,��
2023/11/16,15:50,0.513,0.781,0.486,0.978,0.701,0.314,0.564,0.528,�k�k��,3.5,��
2023/11/16,16:00,0.513,0.780,0.485,0.979,0.703,0.313,0.564,0.524,�k��,3.2,��
2023/11/16,16:10,0.514,0.781,0.486,0.977,0.703,0.313,0.565,0.527,�k��,2.6,��
2023/11/16,16:20,0.514,0.782,0.485,0.979,0.705,0.313,0.566,0.527,�k��,3.1,��
2023/11/16,16:30,0.515,0.780,0.486,0.978,0.705,0.312,0.564,0.527,�k��,3.9,��
2023/11/16,16:40,0.516,0.779,0.487,0.979,0.705,0.313,0.563,0.527,�k��,4.1,��
2023/11/16,16:50,0.513,0.778,0.488,0.978,0.706,0.313,0.563,0.528,�k��,4.8,��
2023/11/16,17:00,0.515,0.780,0.485,0.978,0.704,0.313,0.565,0.527,�k��,4.1,��
2023/11/16,17:10,0.515,0.779,0.485,0.981,0.705,0.313,0.564,0.525,�k��,3.6,��
2023/11/16,17:20,0.515,0.779,0.486,0.979,0.705,0.313,0.565,0.526,�k��,3.6,��
2023/11/16,17:30,0.515,0.782,0.487,0.978,0.704,0.313,0.565,0.526,�k��,4.3,��
2023/11/16,17:40,0.515,0.780,0.484,0.979,0.707,0.313,0.563,0.525,�k��,4.0,��
2023/11/16,17:50,0.515,0.780,0.487,0.981,0.705,0.312,0.564,0.527,�k��,4.6,��
2023/11/16,18:00,0.515,0.780,0.486,0.980,0.707,0.314,0.565,0.526,�k��,4.8,��
2023/11/16,18:10,0.514,0.781,0.486,0.980,0.705,0.312,0.565,0.527,�k��,5.0,��
2023/11/16,18:20,0.516,0.782,0.484,0.980,0.704,0.314,0.564,0.525,�k�k��,5.3,��
2023/11/16,18:30,0.515,0.780,0.487,0.979,0.706,0.313,0.564,0.527,�k�k��,4.8,��
2023/11/16,18:40,0.516,0.780,0.486,0.981,0.704,0.313,0.562,0.527,�k��,5.0,��
2023/11/16,18:50,0.515,0.780,0.486,0.981,0.706,0.313,0.565,0.528,�k��,4.8,��
2023/11/16,19:00,0.516,0.780,0.486,0.981,0.705,0.313,0.564,0.527,�k��,4.2,��
2023/11/16,19:10,0.514,0.779,0.486,0.980,0.705,0.313,0.564,0.525,�k��,4.2,��
2023/11/16,19:20,0.516,0.781,0.484,0.977,0.705,0.314,0.564,0.526,�k��,4.3,��
2023/11/16,19:30,0.513,0.784,0.486,0.978,0.704,0.313,0.563,0.525,�k��,4.6,��
2023/11/16,19:40,0.515,0.780,0.486,0.978,0.704,0.313,0.564,0.526,�k��,4.6,��
2023/11/16,19:50,0.515,0.779,0.485,0.980,0.705,0.312,0.564,0.525,�k�k��,4.2,��
2023/11/16,20:00,0.516,0.781,0.485,0.980,0.705,0.312,0.564,0.526,�k�k��,4.3,��
2023/11/16,20:10,0.516,0.781,0.485,0.980,0.703,0.314,0.562,0.527,�k�k��,4.8,��
2023/11/16,20:20,0.516,0.778,0.485,0.978,0.704,0.313,0.563,0.528,�k�k��,5.5,��
2023/11/16,20:30,0.516,0.779,0.486,0.981,0.704,0.313,0.564,0.526,�k�k��,5.4,��
2023/11/16,20:40,0.516,0.779,0.485,0.980,0.704,0.313,0.564,0.528,�k��,4.7,��
2023/11/16,20:50,0.515,0.779,0.485,0.982,0.704,0.314,0.564,0.525,�k��,4.8,��
2023/11/16,21:00,0.513,0.781,0.486,0.977,0.704,0.314,0.562,0.527,�k�k��,4.6,��
2023/11/16,21:10,0.514,0.778,0.484,0.981,0.703,0.312,0.563,0.527,�k�k��,4.7,��
2023/11/16,21:20,0.515,0.779,0.487,0.980,0.705,0.339,0.562,0.525,�k��,4.4,��
2023/11/16,21:30,0.516,0.779,0.485,0.981,0.706,0.312,0.564,0.526,�k��,4.2,��
2023/11/16,21:40,0.517,0.783,0.486,0.979,0.706,0.313,0.563,0.525,���k��,3.5,��
2023/11/16,21:50,0.515,0.780,0.486,0.979,0.704,0.314,0.563,0.527,���k��,3.5,��
2023/11/16,22:00,0.514,0.781,0.485,0.980,0.705,0.313,0.564,0.526,�k��,2.9,��
2023/11/16,22:10,0.515,0.780,0.486,0.981,0.704,0.314,0.564,0.526,�k��,3.1,��
2023/11/16,22:20,0.516,0.780,0.486,0.979,0.707,0.314,0.564,0.526,�k��,2.3,��
2023/11/16,22:30,0.514,0.781,0.487,0.980,0.704,0.314,0.563,0.527,�k��,2.5,��
2023/11/16,22:40,0.514,0.781,0.486,0.983,0.705,0.314,0.564,0.527,�k��,2.8,��
2023/11/16,22:50,0.516,0.780,0.486,0.980,0.704,0.314,0.563,0.527,�k��,3.2,��
2023/11/16,23:00,0.515,0.780,0.487,0.980,0.706,0.314,0.563,0.527,�k��,2.6,��
2023/11/16,23:10,0.516,0.780,0.484,0.979,0.706,0.314,0.563,0.527,�k��,2.5,��
2023/11/16,23:20,0.515,0.780,0.487,0.980,0.706,0.314,0.563,0.526,�k��,2.9,��
2023/11/16,23:30,0.514,0.780,0.486,0.981,0.706,0.315,0.563,0.527,�k��,3.1,��
2023/11/16,23:40,0.515,0.780,0.485,0.980,0.706,0.314,0.563,0.526,�k��,2.5,��
2023/11/16,23:50,0.515,0.780,0.486,0.981,0.706,0.315,0.565,0.526,�k��,1.5,��
